Luxor, Egypt

6:59 PM EET on May 23, 2017 (GMT +0200)
Luxor

Weather History for HELX - September, 2013

Change the Weather History Date:

Thursday, September 26, 2013

  Actual Average Record
Temperature  
Mean Temperature 82 °F -  
Max Temperature 95 °F 92 °F 108 °F (2015)
Min Temperature 69 °F 66 °F 68 °F (1997)
Cooling Degree Days 17    
Growing Degree Days 32 (Base 50)    
Moisture  
Dew Point 55 °F    
Average Humidity 38    
Maximum Humidity 57    
Minimum Humidity 17    
Precipitation  
Precipitation 0.00 in 0.00 in - ()
Sea Level Pressure  
Sea Level Pressure 29.90 in    
Wind  
Wind Speed 3 mph ()    
Max Wind Speed 8 mph    
Max Gust Speed -    
Visibility 6.0 miles    
Events      
Averages and records for this station are not official NWS values.
T = Trace of Precipitation, MM = Missing Value Source: Averaged Metar Reports

Daily Weather History Graph

Daily Weather History Graph

Search for Another Location

Airport or City:

Trip Planner

Search our weather history database for the weather conditions in past years. The results will help you decide how hot, cold, wet, or windy it might be!

Date:

Astronomy

Sep. 26, 2013 Rise Set
Actual Time 5:39 AM EET 5:41 PM EET
Civil Twilight 5:16 AM EET 6:04 PM EET
Nautical Twilight 4:49 AM EET 6:30 PM EET
Astronomical Twilight 4:22 AM EET 6:57 PM EET
Moon 10:50 PM EET (9/26) 11:46 AM EET (9/26)
Length of Visible Light 12h 47m
Length of Day
12h 01m
Waning Gibbous, 57% of the Moon is Illuminated
Sep 26
Waning Gibbous
Sep 27
Last Quarter
Oct 5
New
Oct 12
First Quarter
Oct 19
Full

Hourly Weather History & Observations

Time (EET) Temp. Heat Index Dew Point Humidity Pressure Visibility Wind Dir Wind Speed Gust Speed Precip Events Conditions
12:00 AM 80.6 °F 80.5 °F 55.4 °F 42% 29.95 in - SSE 4.6 mph - N/A   Clear
1:00 AM 78.8 °F - 53.6 °F 42% 29.92 in - SSE 2.3 mph - N/A   Clear
2:00 AM 75 °F - 55 °F 40% 29.92 in 6 mi SW 8.1 mph - -  
2:00 AM 75.2 °F - 55.4 °F 50% 29.92 in - SW 8.1 mph - N/A   Clear
3:00 AM 73.4 °F - 53.6 °F 50% 29.92 in - SSE 2.3 mph - N/A   Clear
4:00 AM 71.6 °F - 55.4 °F 57% 29.92 in - SE 2.3 mph - N/A   Clear
5:00 AM 71.6 °F - 55.4 °F 57% 29.95 in - Calm Calm - N/A   Clear
6:00 AM 71.6 °F - 53.6 °F 53% 29.95 in - SSE 1.2 mph - N/A   Clear
7:00 AM 75.2 °F - 55.4 °F 50% 29.95 in - Calm Calm - N/A   Clear
8:00 AM 80 °F - 56 °F 33% 29.97 in 6 mi Calm Calm - -  
8:00 AM 78.8 °F - 55.4 °F 44% 29.98 in - Calm Calm - N/A   Clear
9:00 AM 84.2 °F 83.5 °F 57.2 °F 40% 29.98 in - SW 2.3 mph - N/A   Clear
10:00 AM 86.0 °F 84.9 °F 57.2 °F 37% 29.98 in - WSW 2.3 mph - N/A   Clear
11:00 AM 89.6 °F 87.3 °F 53.6 °F 29% 29.95 in - WSW 4.6 mph - N/A   Clear
12:00 PM 91.4 °F 89.4 °F 55.4 °F 29% 29.92 in - WNW 2.3 mph - N/A   Clear
1:00 PM 93.2 °F 91.3 °F 55.4 °F 28% 29.89 in - West 4.6 mph - N/A   Clear
2:00 PM 94 °F - 55 °F 17% 29.84 in 6 mi West 4.6 mph - -  
2:00 PM 93.2 °F 91.3 °F 55.4 °F 28% 29.86 in - West 4.6 mph - N/A   Clear
3:00 PM 95.0 °F 92.7 °F 53.6 °F 25% 29.83 in - NW 3.5 mph - N/A   Clear
4:00 PM 95.0 °F - 51.8 °F 23% 29.83 in - West 3.5 mph - N/A   Clear
5:00 PM 93.2 °F - 51.8 °F 24% 29.83 in - Calm Calm - N/A   Clear
6:00 PM 89.6 °F 87.3 °F 53.6 °F 29% 29.83 in - WSW 2.3 mph - N/A   Clear
7:00 PM 84.2 °F 83.8 °F 59.0 °F 42% 29.83 in - West 4.6 mph - N/A   Clear
8:00 PM 83 °F - 55 °F 28% 29.84 in 6 mi West 3.5 mph - -  
8:00 PM 82.4 °F 81.7 °F 55.4 °F 39% 29.83 in - West 3.5 mph - N/A   Clear
9:00 PM 82.4 °F 81.4 °F 53.6 °F 37% 29.86 in - SSW 3.5 mph - N/A   Clear
10:00 PM 80.6 °F 80.3 °F 53.6 °F 39% 29.86 in - South 3.5 mph - N/A   Clear
11:00 PM 80.6 °F 80.3 °F 53.6 °F 39% 29.86 in - Calm Calm - N/A   Clear